Hourly Weather Kisujszallas

Today, 27 October, Tuesday

Time Temperature Precipitation Wind Pressure Humidity
00:00 +12°C° 0 mm 3 mps 751 mmHg 86%
01:00 +12°C° 0 mm 3 mps 751 mmHg 86%
02:00 +12°C° 0 mm 3 mps 751 mmHg 86%
03:00 +11°C° 0 mm 3 mps 751 mmHg 87%
04:00 +11°C° 0 mm 3 mps 751 mmHg 87%
05:00 +11°C° 0 mm 3 mps 751 mmHg 86%
06:00 +12°C° 0 mm 2 mps 751 mmHg 85%
07:00 +12°C° 0 mm 2 mps 751 mmHg 84%
08:00 +14°C° 0 mm 2 mps 752 mmHg 75%
09:00 +16°C° 0 mm 2 mps 752 mmHg 67%
10:00 +18°C° 0 mm 2 mps 752 mmHg 59%
11:00 +19°C° 0 mm 2 mps 752 mmHg 56%
12:00 +19°C° 0 mm 2 mps 751 mmHg 53%
13:00 +20°C° 0 mm 2 mps 751 mmHg 50%
14:00 +20°C° 0 mm 2 mps 751 mmHg 53%
15:00 +19°C° 0 mm 2 mps 751 mmHg 56%
16:00 +19°C° 0 mm 1 mps 751 mmHg 59%
17:00 +18°C° 0 mm 1 mps 751 mmHg 62%
18:00 +18°C° 0 mm 1 mps 752 mmHg 64%
19:00 +16°C° 0 mm 1 mps 752 mmHg 67%
20:00 +15°C° 0 mm 1 mps 752 mmHg 68%
21:00 +15°C° 0 mm 1 mps 753 mmHg 69%
22:00 +15°C° 0 mm 1 mps 753 mmHg 70%
23:00 +14°C° 0 mm 1 mps 753 mmHg 71%

Tomorrow, 28 October, Wednesday

Time Temperature Precipitation Wind Pressure Humidity
00:00 +14°C° 0 mm 1 mps 753 mmHg 73%
01:00 +14°C° 0 mm 1 mps 753 mmHg 74%
02:00 +13°C° 0 mm 1 mps 753 mmHg 75%
03:00 +13°C° 0 mm 1 mps 753 mmHg 77%
04:00 +13°C° 0 mm 1 mps 753 mmHg 78%
05:00 +13°C° 0 mm 1 mps 754 mmHg 78%
06:00 +13°C° 0 mm 1 mps 754 mmHg 79%
07:00 +13°C° 0 mm 1 mps 754 mmHg 79%
08:00 +14°C° 0 mm 1 mps 754 mmHg 74%
09:00 +15°C° 0 mm 0 mps 755 mmHg 68%
10:00 +16°C° 0 mm 0 mps 755 mmHg 63%
11:00 +19°C° 0 mm 1 mps 755 mmHg 61%
12:00 +19°C° 0 mm 1 mps 755 mmHg 59%
13:00 +20°C° 0 mm 1 mps 755 mmHg 57%
14:00 +19°C° 0 mm 1 mps 755 mmHg 60%
15:00 +19°C° 0 mm 1 mps 755 mmHg 64%
16:00 +18°C° 0 mm 1 mps 755 mmHg 67%
17:00 +16°C° 0 mm 1 mps 755 mmHg 70%
18:00 +16°C° 0 mm 1 mps 755 mmHg 73%
19:00 +15°C° 0 mm 1 mps 755 mmHg 76%
20:00 +15°C° 0 mm 1 mps 755 mmHg 78%
21:00 +14°C° 0 mm 1 mps 755 mmHg 79%
22:00 +14°C° 0 mm 1 mps 755 mmHg 81%
23:00 +14°C° 0 mm 1 mps 755 mmHg 82%

Day after tomorrow, 29 October, Thursday

Time Temperature Precipitation Wind Pressure Humidity
00:00 +13°C° 0 mm 1 mps 755 mmHg 84%
01:00 +13°C° 0 mm 1 mps 755 mmHg 86%
02:00 +13°C° 0 mm 1 mps 755 mmHg 87%
03:00 +12°C° 0 mm 1 mps 755 mmHg 88%
04:00 +12°C° 0 mm 1 mps 755 mmHg 89%
05:00 +12°C° 0 mm 1 mps 756 mmHg 89%
06:00 +12°C° 0 mm 1 mps 756 mmHg 89%
07:00 +11°C° 0 mm 1 mps 756 mmHg 88%
08:00 +13°C° 0 mm 1 mps 756 mmHg 83%
09:00 +14°C° 0 mm 1 mps 756 mmHg 77%
10:00 +15°C° 0 mm 1 mps 756 mmHg 72%
11:00 +16°C° 0 mm 2 mps 756 mmHg 68%
12:00 +17°C° 0 mm 2 mps 756 mmHg 64%
13:00 +18°C° 0 mm 2 mps 756 mmHg 60%
14:00 +17°C° 0 mm 2 mps 755 mmHg 62%
15:00 +17°C° 0 mm 2 mps 755 mmHg 64%
16:00 +16°C° 0 mm 2 mps 755 mmHg 66%
17:00 +16°C° 0 mm 3 mps 756 mmHg 65%
18:00 +14°C° 0 mm 3 mps 756 mmHg 65%
19:00 +14°C° 0 mm 4 mps 756 mmHg 64%
20:00 +13°C° 0.3 mm 4 mps 757 mmHg 70%
21:00 +13°C° 0.3 mm 4 mps 757 mmHg 75%
22:00 +12°C° 0.3 mm 4 mps 757 mmHg 80%
23:00 +12°C° 0 mm 4 mps 757 mmHg 79%

30 October, Friday

Time Temperature Precipitation Wind Pressure Humidity
00:00 +10°C° 0 mm 5 mps 757 mmHg 78%
01:00 +10°C° 0 mm 5 mps 757 mmHg 77%
02:00 +10°C° 0 mm 5 mps 757 mmHg 76%
03:00 +9°C° 0 mm 6 mps 757 mmHg 75%
04:00 +8°C° 0 mm 6 mps 758 mmHg 75%
05:00 +8°C° 0.1 mm 5 mps 758 mmHg 75%
06:00 +8°C° 0.1 mm 5 mps 758 mmHg 75%
07:00 +8°C° 0.1 mm 4 mps 759 mmHg 75%
08:00 +10°C° 0 mm 4 mps 759 mmHg 70%
09:00 +11°C° 0 mm 3 mps 759 mmHg 66%
10:00 +11°C° 0 mm 3 mps 760 mmHg 61%
11:00 +12°C° 0 mm 3 mps 760 mmHg 57%
12:00 +13°C° 0 mm 3 mps 759 mmHg 54%
13:00 +13°C° 0 mm 3 mps 759 mmHg 50%
14:00 +13°C° 0 mm 3 mps 759 mmHg 53%
15:00 +12°C° 0 mm 3 mps 759 mmHg 55%
16:00 +13°C° 0 mm 2 mps 759 mmHg 58%
17:00 +12°C° 0 mm 2 mps 759 mmHg 61%
18:00 +10°C° 0 mm 2 mps 759 mmHg 64%
19:00 +10°C° 0 mm 2 mps 759 mmHg 67%
20:00 +9°C° 0.2 mm 2 mps 759 mmHg 72%
21:00 +9°C° 0.2 mm 2 mps 759 mmHg 77%
22:00 +9°C° 0.2 mm 2 mps 759 mmHg 83%
23:00 +9°C° 0.6 mm 2 mps 759 mmHg 86%

31 October, Saturday

Time Temperature Precipitation Wind Pressure Humidity
00:00 +9°C° 0.6 mm 2 mps 759 mmHg 89%
01:00 +9°C° 0.6 mm 2 mps 759 mmHg 92%
02:00 +9°C° 0.5 mm 2 mps 758 mmHg 92%
03:00 +9°C° 0.5 mm 2 mps 758 mmHg 91%
04:00 +9°C° 0.5 mm 3 mps 758 mmHg 91%
05:00 +9°C° 0.1 mm 3 mps 758 mmHg 90%
06:00 +9°C° 0.1 mm 3 mps 758 mmHg 90%
07:00 +8°C° 0.1 mm 3 mps 758 mmHg 89%
08:00 +9°C° 0 mm 3 mps 759 mmHg 83%
09:00 +10°C° 0 mm 3 mps 759 mmHg 76%
10:00 +11°C° 0 mm 3 mps 759 mmHg 70%
11:00 +11°C° 0 mm 3 mps 759 mmHg 66%
12:00 +12°C° 0 mm 3 mps 759 mmHg 62%
13:00 +12°C° 0 mm 4 mps 759 mmHg 59%
14:00 +12°C° 0 mm 3 mps 759 mmHg 61%
15:00 +11°C° 0 mm 3 mps 759 mmHg 63%
16:00 +11°C° 0 mm 3 mps 760 mmHg 65%
17:00 +10°C° 0 mm 3 mps 760 mmHg 67%
18:00 +9°C° 0 mm 3 mps 760 mmHg 69%
19:00 +9°C° 0 mm 3 mps 760 mmHg 71%
20:00 +8°C° 0 mm 3 mps 761 mmHg 72%
21:00 +8°C° 0 mm 3 mps 761 mmHg 73%
22:00 +7°C° 0 mm 3 mps 761 mmHg 74%
23:00 +7°C° 0 mm 3 mps 761 mmHg 76%

1 November, Sunday

Time Temperature Precipitation Wind Pressure Humidity
00:00 +5°C° 0 mm 3 mps 761 mmHg 78%
01:00 +5°C° 0 mm 3 mps 761 mmHg 80%
02:00 +5°C° 0 mm 3 mps 761 mmHg 81%
03:00 +5°C° 0 mm 2 mps 761 mmHg 82%
04:00 +5°C° 0 mm 2 mps 761 mmHg 83%
05:00 +5°C° 0 mm 2 mps 761 mmHg 83%
06:00 +5°C° 0 mm 2 mps 761 mmHg 83%
07:00 +5°C° 0 mm 2 mps 761 mmHg 83%
08:00 +7°C° 0 mm 2 mps 761 mmHg 75%
09:00 +8°C° 0 mm 2 mps 761 mmHg 68%
10:00 +10°C° 0 mm 2 mps 761 mmHg 60%
11:00 +12°C° 0 mm 2 mps 761 mmHg 57%
12:00 +12°C° 0 mm 3 mps 760 mmHg 54%
13:00 +13°C° 0 mm 3 mps 760 mmHg 50%
14:00 +12°C° 0 mm 3 mps 760 mmHg 54%
15:00 +12°C° 0 mm 2 mps 760 mmHg 58%
16:00 +12°C° 0 mm 2 mps 759 mmHg 61%
17:00 +10°C° 0 mm 2 mps 759 mmHg 65%
18:00 +9°C° 0 mm 2 mps 759 mmHg 68%
19:00 +8°C° 0 mm 2 mps 759 mmHg 71%
20:00 +8°C° 0 mm 2 mps 759 mmHg 74%
21:00 +8°C° 0 mm 2 mps 759 mmHg 76%
22:00 +7°C° 0 mm 2 mps 759 mmHg 79%
23:00 +7°C° 0 mm 2 mps 759 mmHg 80%
Show more